Location: Pinawa
(50.1500°N, 95.8830°W)
Time: 00:29:30
(UTC-05:00)

Daily predictions for brighter satellites

Satellite Brightness Start Highest point End
(mag) Time Altitude Azimuth Time Altitude Azimuth Time Altitude Azimuth
Cosmos 2333 Rocket 4.2 00:28:52 10° NNW 00:31:11 24° N 00:31:11 24° N
SL-16 R/B 4.4 00:52:30 10° NNW 00:55:05 21° N 00:55:05 21° N
Cosmos 2237 Rocket 4.4 01:00:06 10° NNW 01:02:04 21° NNW 01:02:04 21° NNW
ATLAS 5 CENTAUR R/B 4.4 01:37:05 19° NNE 01:37:05 19° NNE 01:39:52 10° NE
Cosmos 2297 Rocket 4.4 02:05:07 20° NE 02:05:07 20° NE 02:06:53 10° NE
SL-16 R/B 4.1 02:08:19 29° NE 02:08:19 29° NE 02:13:07 10° N
USA 215 4.1 02:19:52 10° ENE 02:24:38 46° NNE 02:24:38 46° NNE
Resurs 1-4 Rocket 4.2 02:37:43 10° NE 02:40:25 20° ENE 02:40:25 20° ENE
ADEOS Rocket 3.7 02:52:40 10° NNE 02:57:35 56° NNE 02:57:35 56° NNE
Cosmos 2227 Rocket 3.5 03:05:21 35° NNE 03:05:21 35° NNE 03:08:40 10° NNE
Lacrosse 5 rocket 4.5 03:14:32 11° NE 03:14:32 11° NE 03:14:44 10° NE
ARIANE 5 R/B 4.2 03:11:12 10° NNE 03:14:37 29° ENE 03:14:37 29° ENE
CZ-4C R/B 3.0 03:22:58 49° NNE 03:22:58 49° NNE 03:27:43 10° NE
ATLAS 5 CENTAUR R/B 4.2 03:18:38 14° NNW 03:22:07 25° NNE 03:27:03 10° ENE
CZ-2D R/B 3.3 03:19:38 10° NNE 03:23:22 38° ENE 03:23:22 38° ENE
Cosmos 1634 Rocket 4.2 03:34:28 68° NE 03:34:28 68° NE 03:39:59 10° NNE
Cosmos 2297 Rocket 3.3 03:46:55 36° NNW 03:46:55 36° NNW 03:51:02 10° NNE
Cosmos 407 Rocket 4.1 03:51:25 55° NNE 03:51:25 55° NNE 03:55:34 10° NNE
SL-16 R/B 3.3 03:53:25 39° NW 03:53:25 39° NW 03:57:19 10° NNW
Cosmos 1428 Rocket 4.5 03:46:28 10° N 03:52:15 78° NNE 03:52:15 78° NNE
ADEOS II 4.2 03:57:04 10° NE 04:01:04 22° E 04:05:00 10° SE
USA 215 3.9 04:02:29 10° ENE 04:08:44 50° N 04:11:58 28° NW
Cosmos 1655 Rocket 4.0 04:04:52 10° NNW 04:10:43 69° WNW 04:10:43 69° WNW
Cosmos 371 Rocket 4.3 04:10:44 10° NNW 04:15:27 45° ENE 04:20:06 10° SE
Cosmos 1140 Rocket 3.5 04:19:22 75° ESE 04:19:22 75° ESE 04:24:37 10° NNE
Resurs 1-4 Rocket 2.3 04:16:51 10° N 04:21:30 58° NW 04:21:30 58° NW
Meteor 1-27 Rocket 4.1 04:30:22 46° NW 04:30:22 46° NW 04:35:04 10° N
Cosmos 1975 Rocket 3.9 04:29:11 41° SE 04:29:59 46° E 04:34:13 10° NNE
Cosmos 2279 Rocket 3.9 04:35:13 60° WSW 04:35:52 64° WNW 04:42:02 10° N
ADEOS 3.4 04:31:23 10° N 04:36:36 70° WNW 04:36:44 70° W
Lacrosse 4 Rocket 4.4 04:36:31 10° N 04:39:04 15° NNE 04:41:34 10° ENE
Cosmos 614 Rocket 3.8 04:39:35 76° SW 04:39:59 86° WNW 04:45:10 10° NNE
Cosmos 1850 Rocket 4.2 04:41:35 45° S 04:43:08 67° ESE 04:48:26 10° NNE
ADEOS Rocket 4.4 04:39:05 10° N 04:44:07 25° WNW 04:44:32 25° WNW
Meteor 1-4 Rocket 4.3 04:42:16 10° N 04:45:26 31° ENE 04:48:36 10° SE
MOS 1 Rocket 4.3 04:41:42 10° N 04:46:13 39° WNW 04:46:13 39° WNW
Cosmos 1975 3.0 04:43:39 10° N 04:47:47 74° E 04:48:24 60° SE
Cosmos 2227 Rocket 4.0 04:47:11 17° NW 04:48:13 18° NW 04:52:03 10° N
Cosmos 2227 4.4 04:48:44 50° W 04:49:23 53° NW 04:54:57 10° NNE
Cosmos 1743 3.8 04:46:18 10° N 04:50:06 46° ENE 04:53:51 10° SSE
Lacrosse 5 rocket 2.7 04:50:14 27° NNW 04:50:54 29° N 04:54:13 10° ENE
Cosmos 1954 Rocket 4.1 04:50:41 55° W 04:51:11 57° WNW 04:56:28 10° NNE
Cosmos 2263 Rocket 2.2 04:50:24 42° SSW 04:52:25 77° ESE 04:58:08 10° NNE
ARIANE 5 R/B 3.0 04:50:13 10° N 04:54:57 41° WNW 04:54:57 41° WNW
Okean 1 3.4 04:56:36 55° SSE 04:57:19 72° E 05:01:22 10° NNE
Cosmos 676 Rocket 4.4 04:56:53 44° WNW 04:57:20 45° WNW 05:02:29 10° NNE
IRS-1D 4.3 04:52:43 10° N 04:57:35 36° WNW 04:57:41 36° WNW
Cosmos 1378 Rocket 3.8 04:58:09 51° NW 04:58:09 51° NW 05:02:03 10° N
Meteor 1-18 Rocket 4.3 04:56:36 26° S 05:00:06 85° E 05:06:04 10° NNE
CZ-2D R/B 3.6 04:56:04 10° N 04:59:59 55° WNW 04:59:59 55° WNW
Cosmos 220 Rocket 3.9 05:01:24 60° SSW 05:02:10 87° ESE 05:06:33 10° NNE
Cosmos 405 Rocket 4.2 05:04:41 25° NW 05:04:41 25° NW 05:07:05 10° N
CZ-2D R/B 3.0 05:00:04 10° N 05:04:36 31° WNW 05:04:41 31° WNW
ATLAS 5 CENTAUR R/B 2.9 05:02:13 10° NW 05:07:54 59° NE 05:14:11 10° ESE
Cosmos 1570 Rocket 4.3 05:04:02 10° NW 05:08:56 43° WSW 05:08:56 43° WSW
SL-24 DEB 4.2 05:05:57 10° N 05:10:45 70° W 05:12:41 36° SSW
CZ-4C R/B 3.7 05:08:09 20° WNW 05:11:03 29° NNW 05:16:49 10° NE
ASTEX 1 3.3 05:07:40 10° N 05:12:36 71° W 05:15:01 30° SSW
UNKNOWN OBJECT B 3.8 05:10:50 10° N 05:13:40 31° NW 05:13:40 31° NW
ATLAS 3B R/B 3.5 05:09:14 12° SSW 05:15:43 50° ESE 05:22:30 10° NE
Atlas Centaur 2 4.4 05:16:11 11° S 05:16:11 11° S 05:17:50 10° S
Cosmos 2208 Rocket 4.4 05:14:15 10° NW 05:19:10 40° WSW 05:21:08 28° SSW
PKM 4.3 05:19:15 38° NW 05:20:04 49° N 05:25:26 10° ENE
Cosmos 1437 Rocket 4.2 05:16:40 10° NNW 05:18:31 23° NW 05:18:31 23° NW
Okean O Rocket 2.2 05:21:26 10° NNE 05:25:44 57° E 05:30:01 10° S
Cosmos 1812 3.8 05:26:30 28° NW 05:26:30 28° NW 05:29:24 10° N
CZ-4B R/B 3.0 05:23:51 10° NNE 05:27:59 75° ESE 05:31:14 15° S
Fregat R/B Cluster 11 4.2 05:29:24 37° WNW 05:30:02 42° NW 05:33:51 10° NE
GEOS 3 Rocket 4.5 05:25:10 10° ESE 05:30:14 51° NE 05:35:24 10° NW
Cosmos 1814 Rocket 3.8 05:25:32 10° NNW 05:30:42 76° WSW 05:35:53 10° SSE
Cosmos 2297 Rocket 4.3 05:28:44 10° NW 05:31:22 13° NNW 05:34:07 10° N
CZ-4B R/B 3.8 05:27:24 10° NNE 05:32:38 56° ESE 05:37:51 10° S
ADEOS II 2.1 05:36:02 10° N 05:41:15 64° WNW 05:45:56 13° SSW
Cosmos 1271 Rocket 4.0 05:38:54 10° N 05:42:45 44° ENE 05:46:36 10° SSE
COSMO-SKYMED 1 4.3 05:42:55 10° SE 05:46:52 35° ENE 05:50:51 10° N
Meteor 2-4 Rocket 4.1 05:42:00 10° S 05:47:34 68° E 05:53:21 10° NNE
Cosmos 1900 4.5 05:43:57 10° NW 05:49:01 55° WSW 05:53:57 10° SSE
USA 215 3.4 05:44:52 10° ESE 05:51:23 76° NNE 05:57:56 10° WNW
PSLV R/B 3.4 05:47:18 10° N 05:51:29 65° WNW 05:55:39 10° SSW
Meteor 2-9 Rocket 4.1 05:49:33 10° NNW 05:54:59 75° W 06:00:31 10° S
Cosmos 371 Rocket 4.1 05:51:32 10° NW 05:55:40 28° W 05:59:47 10° SSW
MOS 1-B 4.5 05:50:03 10° N 05:55:41 54° WNW 06:01:18 10° SW
Cosmos 1607 4.3 05:51:33 20° WSW 05:55:53 54° NW 06:02:13 10° NE
CZ-2C R/B 3.7 05:53:24 10° SSE 05:58:09 82° WSW 06:02:58 10° NNW
Cosmos 1544 Rocket 4.4 05:56:50 10° NNW 06:00:34 28° W 06:04:18 10° SSW
Meteor 1-19 Rocket 4.2 05:55:03 10° SSW 06:00:53 74° WNW 06:06:41 10° N
TELKOM 3 3.6 06:00:06 28° SW 06:00:56 43° SSE 06:02:59 10° E
Resurs 1-4 Rocket 4.0 05:58:39 10° NNW 06:00:58 13° NW 06:02:34 11° WNW
Cosmos 841 Rocket 3.5 05:58:16 10° NNW 06:03:24 62° WSW 06:08:31 10° S
MTI 3.7 06:03:31 10° SSE 06:06:47 89° WSW 06:10:05 10° NNW
TSX-5 3.5 06:02:49 10° NNW 06:06:53 90° E 06:10:13 10° SSE
Cosmos 1455 Rocket 3.9 06:04:21 10° NNW 06:08:00 27° W 06:11:37 10° SW
Cosmos 1975 Rocket 4.4 06:06:22 18° W 06:08:07 22° WNW 06:11:33 10° NNW
Abrixas rocket 2.3 06:06:53 21° WSW 06:08:54 65° S 06:12:07 10° E
COSMOS 2406 3.3 06:03:38 10° NW 06:09:18 56° WSW 06:14:54 10° S
Cosmos 1666 3.5 06:06:34 10° NNW 06:09:52 29° W 06:13:09 10° SSW
SL-8 R/B 3.8 06:08:43 16° WSW 06:12:28 71° S 06:17:16 10° E
Cosmos 2278 Rocket 4.0 06:09:32 10° S 06:14:33 34° ESE 06:19:37 10° NE
Cosmos 540 Rocket 3.5 06:09:28 10° NNW 06:14:39 89° ENE 06:19:49 10° SSE
CZ-4B DEB 4.2 06:09:37 10° N 06:15:03 66° WNW 06:20:27 10° SSW
EO 1 Del DPAF 3.2 06:12:30 10° SSE 06:16:20 81° WSW 06:20:11 10° NNW
Landsat 4 4.1 06:13:01 10° S 06:16:39 41° W 06:20:19 10° NNW
Lacrosse 4 Rocket 2.1 06:14:24 10° NNW 06:18:43 59° NE 06:22:53 10° SE
Intercosmos 25 Rocket 4.0 06:16:55 11° SW 06:19:41 25° WNW 06:22:24 10° NNW
Meteor 1-4 Rocket 3.8 06:17:50 10° NW 06:20:23 19° W 06:22:54 10° SW
Cosmos 1486 Rocket 4.0 06:15:09 10° SSW 06:20:24 88° WNW 06:25:40 10° NNE
Cosmos 1763 Rocket 4.1 06:16:30 10° NW 06:21:18 35° WSW 06:26:05 10° SSW
Cosmos 1833 Rocket 3.9 06:16:48 10° NNW 06:22:12 44° NE 06:27:34 10° SE
Meteor 1-31 Rocket 2.7 06:19:33 10° N 06:23:26 71° WNW 06:27:17 10° SSW
Cosmos 1743 4.2 06:22:58 10° NW 06:25:34 17° W 06:28:10 10° SW
Cosmos 1844 Rocket 2.7 06:21:07 10° SSW 06:26:48 87° WNW 06:32:32 10° NNE
Cosmos 292 Rocket 4.4 06:25:22 10° NNW 06:30:12 62° ENE 06:34:59 10° SE
Lacrosse 5 rocket 1.8 06:26:59 10° NW 06:30:42 50° NNE 06:34:15 10° E
Meteor PRIRODA 3.9 06:27:23 10° N 06:30:58 48° WNW 06:34:32 10° SW
USA 238 DEB 3.8 06:25:48 10° SW 06:32:47 81° NW 06:39:51 10° NE
USA 238 3.8 06:25:54 10° SW 06:32:53 82° NW 06:39:58 10° NE
Okean-O 3.0 06:28:30 10° NNE 06:32:58 71° ESE 06:37:23 10° S
Cosmos 1536 Rocket 4.3 06:29:22 10° SW 06:33:19 33° WNW 06:37:18 10° N
SKYMED 2 3.5 06:30:30 10° SSE 06:34:50 83° WSW 06:39:13 10° NNW
Cosmos 304 Rocket 4.4 06:31:25 10° NW 06:35:44 33° WSW 06:40:03 10° SSW
Cosmos 2263 Rocket 3.4 06:32:15 10° W 06:36:59 26° NW 06:41:44 10° NNE
IDEFIX/ARIANE 42P 4.0 06:32:59 10° NNE 06:38:03 44° E 06:43:04 10° S
Cosmos 1726 Rocket 3.6 06:36:41 10° N 06:41:03 86° E 06:45:23 10° S
Meteor 1-15 Rocket 4.4 06:36:42 10° NNW 06:42:09 51° W 06:47:31 10° S
Okean 2 3.3 06:39:13 10° SSW 06:43:17 73° W 06:47:25 10° N
Meteor 1-23 Rocket 4.3 06:40:48 10° SSW 06:46:18 62° WNW 06:51:53 10° N
Cosmos 2082 Rocket 2.8 06:41:38 10° NNW 06:47:22 65° ENE 06:53:03 10° SE
